Location: Clanezzo
(45.7500°N, 9.6000°E)
Time: 07:14:32
(UTC+00:00)

CAS-4A - Pass Details

Date: 11 July 2022
Orbit: 521 x 537 km, 43.0° (Epoch: 08 August)

Event Time Altitude Azimuth Distance (km) Brightness Sun altitude
Rises 20:20:16 0° 217° (SW) 2,637 ? -10.1°
Reaches altitude 10° 20:22:52 10° 201° (SSW) 1,749 ? -10.4°
Maximum altitude 20:25:54 21° 152° (SSE) 1,205 ? -10.7°
Enters shadow 20:28:27 12° 107° (ESE) 1,606 ? -11.0°
